This is the latest recevied weather packets stored in our database for station/object SV4JYD-13. If no packets are shown the sender has not sent any weather packets the latest 10 day(s).
| Time | Temp. | Humidity | Pressure | Rain* | Wind** | Luminosity | Snow |
|---|---|---|---|---|---|---|---|
| 1777940191 | 12.22° C | 71% | 1018 hPa | 0 mm | - | - | - |
| 1777939291 | 12.22° C | 71% | 1018 hPa | 0 mm | - | - | - |
| 1777938390 | 12.22° C | 72% | 1018 hPa | 0 mm | - | - | - |
| 1777937490 | 12.22° C | 74% | 1018 hPa | 0 mm | - | - | - |
| 1777936590 | 12.22° C | 75% | 1018 hPa | 0 mm | - | - | - |
| 1777935690 | 12.22° C | 76% | 1018 hPa | 0 mm | - | - | - |
| 1777934790 | 12.22° C | 81% | 1018 hPa | 0 mm | - | - | - |
| 1777933889 | 11.67° C | 81% | 1018 hPa | 0 mm | - | - | - |
| 1777932989 | 11.67° C | 79% | 1018 hPa | 0 mm | - | - | - |
| 1777932089 | 11.67° C | 78% | 1018 hPa | 0 mm | - | - | - |
| 1777931188 | 11.67° C | 80% | 1018 hPa | 0 mm | - | - | - |
| 1777930287 | 11.11° C | 82% | 1018 hPa | 0 mm | - | - | - |
| 1777929387 | 11.11° C | 90% | 1019 hPa | 0 mm | - | - | - |
| 1777928487 | 11.11° C | 91% | 1019 hPa | 0 mm | - | - | - |
| 1777927587 | 11.11° C | 92% | 1019 hPa | 0 mm | - | - | - |
| 1777926687 | 11.11° C | 93% | 1019 hPa | 0 mm | - | - | - |
| 1777925786 | 11.11° C | 92% | 1019 hPa | 0 mm | - | - | - |
| 1777924886 | 11.67° C | 90% | 1019 hPa | 0 mm | - | - | - |
| 1777923986 | 12.22° C | 87% | 1019 hPa | 0 mm | - | - | - |
| 1777923085 | 12.22° C | 83% | 1019 hPa | 0 mm | - | - | - |
| 1777922185 | 12.78° C | 83% | 1018 hPa | 0 mm | - | - | - |
| 1777921285 | 13.33° C | 82% | 1018 hPa | 0 mm | - | - | - |
| 1777920395 | 13.89° C | 81% | 1018 hPa | 0 mm | - | - | - |
| 1777919484 | 15° C | 73% | 1018 hPa | 0 mm | - | - | - |
| 1777918584 | 15° C | 69% | 1018 hPa | 0 mm | - | - | - |
* Rain latest hour (hover to see other rain measurements)
** Current wind speed in m/s (hover to see current wind gust speed)